Regional Weather Roundup
Issued by NWS Austin/San Antonio, TX

Home | Current Version | Previous Version | Text Only | Print | Product List | Glossary On
Versions: 1 2 3 4 5 6 7 8 9 10 11 12 13 14 15 16 17 18 19 20 21 22 23 24 25 26 27 28 29 30 31 32 33 34 35 36 37 38 39 40 41 42 43 44 45 46 47 48 49 50
000
ASUS44 KEWX 260712
RWREWX
SOUTH TEXAS REGIONAL WEATHER ROUNDUP
NATIONAL WEATHER SERVICE AUSTIN/SAN ANTONIO TX
200 AM CDT FRI MAY 26 2017

NOTE: "FAIR" INDICATED FEW OR NO CLOUDS BELOW 12,000 FEET WITH NO
SIGNIFICANT WEATHER AND/OR OBSTRUCTIONS TO VISIBILITY.

* - THESE STATIONS ARE NOT NWS OR FAA STATIONS...AND ARE NOT SUBJECT
    TO NWS AND FAA QUALITY CONTROL.

TXZ171-172-183>190-260800-
TEXAS HILL COUNTRY AND EDWARDS PLATEAU

CITY           SKY/WX    TMP DP  RH WIND       PRES   REMARKS
JUNCTION       CLEAR     77  70  79 S3        29.77R
*LLANO         MOCLDY    73  70  88 CALM      29.80R
BURNET         CLOUDY    75  69  81 S18G25    29.79R
*HORSESHOE BAY NOT AVBL
*KERRVILLE     CLOUDY    74  71  91 S15       29.81S
*FREDERICKSBRG CLOUDY    74  69  81 S9        29.80S
*ROCKSPRINGS   CLEAR     73  70  88 S17       29.82S
*BOERNE STAGE  CLOUDY    72  70  94 S13       29.82S
*CASTROVILLE   CLOUDY    77  71  81 S6        29.80F
HONDO          CLOUDY    77  73  87 SE10      29.79S
*UVALDE        PTCLDY    74  72  93 CALM      29.78F
DEL RIO        CLEAR     78  68  71 SE12      29.71S
LAUGHLIN AFB   CLEAR     76  71  84 SE10      29.73S
CARRIZO SPRGS  CLEAR     81  72  74 SE9       29.73S
*EAGLE PASS    NOT AVBL
$$

TXZ173-191>194-202-209-217>225-228-260800-
CENTRAL AND SOUTH CENTRAL TEXAS

CITY           SKY/WX    TMP DP  RH WIND       PRES   REMARKS
GEORGETOWN     CLOUDY    75  68  78 S18G24    29.75S
AUSTIN/BERGSTM CLOUDY    77  72  84 S16G26    29.77S
AUSTIN/MABRY   CLOUDY    76  71  85 S8        29.78S
*AUSTIN/EXEC   CLOUDY    75  72  88 S12       29.78S
*LAGO VISTA    CLOUDY    75  71  87 S10G20    29.79S
SAN MARCOS     CLOUDY    75  72  88 S15       29.79F
NEW BRAUNFELS  CLOUDY    78  72  81 S14       29.77F
RANDOLPH AFB   CLOUDY    77  75  96 S14G21    29.78F
PT SAN ANTONIO CLOUDY    77  73  85 S9        29.77S
SAN ANTONIO    CLOUDY    77  72  84 S13       29.79F
STINSON FIELD  CLOUDY    78  72  81 S8        29.77S
*LA GRANGE     CLOUDY    78  73  83 S12G17    29.77S
*GIDDINGS      CLOUDY    76  69  81 S13G20    29.79S
*GONZALES      CLOUDY    78  74  86 S9G16     29.78S
$$

TXZ163>164-176>182-195>201-210>213-226-227-235-260800-
SOUTHEAST TEXAS

CITY           SKY/WX    TMP DP  RH WIND       PRES   REMARKS
COLLEGE STN    CLOUDY    73  68  84 S12       29.78S
*BRYAN         CLOUDY    73  68  85 S15G22    29.79S
*CALDWELL      NOT AVBL
*CROCKETT      CLEAR     68  63  83 S8        29.81S
*BRENHAM       CLOUDY    75  70  83 S10G17    29.79F
HUNTSVILLE     CLEAR     73  65  75 S10       29.79R
CONROE         CLEAR     72  67  84 S9        29.80S
HOUSTON BUSH   PTCLDY    74  67  78 S10       29.80S
HOUSTON HOBBY  PTCLDY    74  68  81 S9        29.80F
*HOUSTON SW AP CLEAR     70  67  89 S3        29.82R
PEARLAND       CLEAR     76  68  76 S10       29.82F
HOUSTON HOOKS  CLEAR     74  68  81 S9        29.80S
ELLINGTON FLD  PTCLDY    73  68  83 S9        29.82F
SUGAR LAND     CLEAR     73  69  87 S9        29.80S
*HOUSTON EXEC  CLOUDY    72  68  88 S10       29.81S FOG
*CLEVELAND MUN CLEAR     67  65  92 CALM      29.81F
*WHARTON       CLOUDY    76  69  78 S17G24    29.80S
*COLUMBUS      CLOUDY    76  70  82 S13       29.80S
*EAGLE LAKE    CLOUDY    76  73  90 S12       29.80R
$$

TXZ214>216-236>238-260800-
THE UPPER TEXAS COAST

CITY           SKY/WX    TMP DP  RH WIND       PRES   REMARKS
*ORANGE        CLEAR     75  69  80 S14G20    29.86S
PORT ARTHUR    CLEAR     73  67  81 S12       29.83F
GALVESTON      CLEAR     78  71  79 S22G30    29.83F
ANGLETON       PTCLDY    76  72  87 S15       29.81F
*BAY CITY      CLOUDY    77  72  85 S12       29.80F
PALACIOS       CLOUDY    77  72  84 S17G29    29.80S
$$

TXZ229>234-239>247-260800-
TEXAS COASTAL BEND AND RIO GRANDE PLAINS

CITY           SKY/WX    TMP DP  RH WIND       PRES   REMARKS
VICTORIA       CLOUDY    79  72  79 S18G29    29.78S
*BEEVILLE      CLOUDY    78  78 100 S17G24    29.77S
ROCKPORT       CLOUDY    79  74  84 S14G21    29.78S
*PORT ARANSAS  PTCLDY    78  74  87 S18G25    29.78S
*PORT LAVACA   CLOUDY    77  74  91 S13G21    29.79S
*INGLESIDE     CLOUDY    80  75  84 S18       29.78R
CORPUS CHRISTI MOCLDY    78  75  90 S17       29.77R
CORPUS NAS     CLOUDY    81  76  84 S17G29    29.78R
*ROBSTOWN      CLOUDY    79  75  87 S17G23    29.77F
ALICE          CLOUDY    78  73  84 S14G24    29.76F
KINGSVILLE NAS CLEAR     78  76  93 S14       29.77R
COTULLA        CLEAR     80  71  74 S7        29.74S
*FAITH RANCH   PTCLDY    81  73  78 SE8       29.73R
LAREDO         CLEAR     79  73  82 S17       29.72F
$$

TXZ248>255-260800-
DEEP SOUTH TEXAS

CITY           SKY/WX    TMP DP  RH WIND       PRES   REMARKS
BROWNSVILLE    CLOUDY    81  75  82 S15       29.82S
PORT ISABEL    CLOUDY    80  75  84 S15G22    29.81S
*SOUTH PADRE   NOT AVBL
HARLINGEN      PTCLDY    79  77  94 S21G26    29.78F
*HEBBRONVILLE  CLOUDY    78  71  80 S17       29.76F
MCALLEN        CLOUDY    81  75  82 SE18G24   29.78F
*WESLACO       PTCLDY    78  74  88 S15G22    29.76F
FALFURRIAS     CLOUDY    78  74  86 S13G20    29.76F
EDINBURG       CLOUDY    80  74  81 S12G18    29.77R
*ZAPATA        MOCLDY    79  72  79 SE13G21   29.73F
$$

TXZ213>215-236>238-242>244-246-247-251-254-255-260800-
CMAN STATIONS

STATION/POSITION TIME  TEMP    WIND        PRES    WAVE
                       AIR SEA DIR/SP/G            HT/PER
                 (UTC) (F)     (DEG/KT/KT) (MB)    (FT/S)
SABINE PASS      0648   76 80  180/ 13/ 20 1011.8
SEA RIM ST PARK  0700   76     180/ 22/ 25 1010.7
NORTH JETTY/GLS  0648      79  170/ 21/ 26 1009.6
EAGLE POINT      0648   77 77  190/ 22/ 25 1009.4
MORGANS POINT    0648   76 79  170/ 12/ 17 1009.4
MISSION/ARANSAS  0600   79                 1009.0
PORT O`CONNOR    0648   78     160/ 22/ 25 1008.3
PORT ARANSAS     0700   79 79  150/ 23/ 26 1008.4
MALAQUITE BEACH  0648   79 80  140/ 22/ 27 1008.5
BAFFIN BAY       0648   79 79              1008.0
PORT ISABEL      0648   80 82  150/ 20/ 24 1009.5
$$




USA.gov is the U.S. government's official web portal to all federal, state and local government web resources and services.